www.pogodaiklimat.ru

Погода и климат >> Архив погоды >> Россия >> Красноярский край >> Светлогорск


ПОГОДА в Светлогорске

  • Прогноз погоды в Светлогорске
  • Монитор погоды в Светлогорске

АРХИВ ПОГОДЫ в Светлогорске

Время (UTC), дата Ветер
(напр.,м/с)
 
Видим.   Явления Облачность Т
(С)
Тd
(С)
f
(%)
Тe
(С)
Тes
(С)
Комфортность P
(гПа)
Po
(гПа)
Тmin
(С)
Tmax
(С)
R
(мм)
R24
(мм)
S
(см)
09 12.07 ЮЗ 6-11
{12}
н/о н/о +21.1 +15.6 71 +24 +24 комфорт 1009.9 998.2
12 12.07 ЮЗ 3
{11}
н/о н/о +18.7 +13.8 73 +20 +20 1010.7 999.0 +21.8 2
15 12.07 Ю 3 н/о н/о +18.8 +14.6 77 +20 +20 1010.8 999.0
18 12.07 Ю 3 н/о н/о +16.8 +13.9 83 +17 +17 1011.7 999.8
21 12.07 Ю 1 н/о н/о +15.8 +13.3 85 +16 +16 1011.7 999.8
00 13.07 ЮЗ 1 н/о н/о +17.9 +14.0 78 +19 +19 1011.8 1000.0 +13.5
03 13.07 ЮЗ 3 н/о н/о +18.4 +15.1 81 +19 +19 1011.3 999.5
06 13.07 ЮЗ 3 н/о н/о +23.0 +13.2 54 +26 +26 жарко 1009.6 998.0
12 13.07 СЗ 5
{10}
н/о н/о +16.7 +9.7 63 +16 +16 1012.4 1000.4 +23.3 7
15 13.07 СЗ 3 н/о н/о +12.2 +8.9 80 +11 +11 1014.2 1002.0
18 13.07 СЗ 2 н/о н/о +10.5 +8.9 90 +9 +9 1015.4 1003.2
21 13.07 СЗ 2 н/о н/о +10.0 +8.3 89 +8 +8 1015.9 1003.7
00 14.07 СЗ 2 н/о н/о +10.9 +8.6 86 +10 +10 1016.2 1004.0 +10.0
03 14.07 СЗ 2 н/о н/о +13.7 +9.3 75 +13 +13 1016.9 1004.8
06 14.07 СЗ 3 н/о н/о +17.6 +10.8 64 +18 +18 1017.0 1005.1
09 14.07 СЗ 2 н/о н/о +19.8 +11.1 57 +22 +22 комфорт 1016.5 1004.7
12 14.07 СЗ 2 н/о н/о +18.9 +10.8 59 +20 +20 1016.7 1004.8 +20.5
15 14.07 З 1 н/о н/о +16.1 +11.0 72 +17 +17 1017.2 1005.2
18 14.07 штиль 0 н/о н/о +12.0 +10.0 88 +11 +11 1017.6 1005.4
21 14.07 ЮВ 2 н/о н/о +9.1 +7.9 92 +7 +7 1017.8 1005.5
00 15.07 С 1 н/о н/о +14.0 +11.0 82 +14 +14 1017.8 1005.7 +9.0
03 15.07 С 2 н/о н/о +18.7 +12.3 66 +20 +20 1017.2 1005.3
06 15.07 С 1 н/о н/о +24.5 +14.1 52 +27 +27 жарко 1016.2 1004.5
09 15.07 ЮЗ 1 н/о н/о +27.1 +11.8 39 +28 +28 жарко 1015.3 1003.8
12 15.07 ЮЗ 2 н/о н/о +26.9 +9.6 34 +27 +27 жарко 1015.4 1003.9 +27.7
15 15.07 ЮЗ 1 н/о н/о +21.4 +13.2 60 +24 +24 комфорт 1015.9 1004.2
00 16.07 С 1 н/о н/о +20.4 +14.8 70 +24 +24 комфорт 1017.1 1005.3 +13.4
03 16.07 СВ 2 н/о н/о +23.6 +16.0 62 +27 +27 жарко 1016.5 1004.8
06 16.07 ЮЗ 2 н/о н/о +29.0 +12.1 35 +30 +30 жарко 1015.3 1003.8
09 16.07 З 1 н/о н/о +31.1 +12.0 31 +32 +32 жарко 1014.2 1002.8
12 16.07 С 1 н/о н/о +29.5 +16.6 46 +33 +33 душно 1013.7 1002.3 +31.6
15 16.07 штиль 0 н/о н/о +22.1 +16.4 70 +26 +26 душно 1013.9 1002.3
18 16.07 штиль 0 н/о н/о +18.0 +16.5 91 +18 +18 1014.0 1002.1
21 16.07 штиль 0 н/о н/о +16.3 +15.4 94 +16 +16 1014.4 1002.5
00 17.07 С 1 н/о н/о +21.5 +17.0 76 +25 +25 комфорт 1013.8 1002.1 +15.6
03 17.07 С 1 н/о н/о +25.7 +17.9 62 +30 +30 душно 1013.3 1001.8
06 17.07 С 1 н/о н/о +31.0 +17.0 43 +35 +35 очень
душно
1012.1 1000.8
09 17.07 С 1 н/о н/о +31.4 +14.0 35 +33 +33 жарко 1011.3 1000.0
12 17.07 С 2 н/о н/о +28.8 +12.8 37 +30 +30 жарко 1011.3 999.9 +31.9
18 17.07 В 3 н/о н/о +23.7 +14.7 57 +26 +26 жарко 1012.6 1001.0
21 17.07 СВ 3 н/о н/о +23.7 +14.7 57 +26 +26 жарко 1012.6 1002.9
00 18.07 В 3 н/о н/о +18.4 +9.6 56 +19 +19 1015.7 1003.8 +17.6
03 18.07 СВ 3 н/о н/о +20.4 +10.6 53 +22 +22 комфорт 1015.6 1003.8
06 18.07 СВ 2 н/о н/о +22.5 +11.1 48 +25 +25 комфорт 1015.1 1003.4
09 18.07 СВ 3 н/о н/о +23.4 +11.4 47 +26 +26 жарко 1014.0 1002.3
12 18.07 СВ 2 н/о н/о +24.0 +10.9 44 +25 +25 комфорт 1013.8 1002.1 +24.2
15 18.07 СВ 2 н/о н/о +20.8 +11.9 57 +24 +24 комфорт 1014.7 1003.0
18 18.07 СВ 2 н/о н/о +14.7 +11.0 78 +14 +14 1016.6 1004.6
21 18.07 В 2 н/о н/о +17.4 +3.7 40 +18 +18 1018.2 1006.2
00 19.07 В 2 н/о н/о +16.7 +7.0 53 +17 +17 1019.8 1007.8 +14.0
03 19.07 ЮВ 3 н/о н/о +21.8 +5.2 34 +22 +22 комфорт 1019.6 1007.8

 

Местоположение метеостанции Светлогорск (Красноярский край, Россия): широта 66.95 долгота 88.42 высота над уровнем моря 101 м.

В архиве по умолчанию представлена погода в Светлогорске за последнюю неделю. Архивные данные за месяц целиком и за предыдущие месяцы, начиная с января 2011 года, Вы можете получить, выбрав интересующий диапазон дат из раскрывающегося списка и нажав кнопку "Ввод!".


*Определитесь, кто Вы:
робот инопланетянин человек

Внимание! Время в таблицах - всемирное. Для получения местного времени необходимо прибавить поправку, которая равна 7 ч.

Смотрите также архив погоды в соседних городах и на ближайших метеорологических станциях:

Погода в Горбиачине (Красноярский край, Россия) (64 км)
Погода в Курейке (Красноярский край, Россия) (75 км)
Погода в Игарке (Красноярский край, Россия) (98 км)
Погода в Снежногорске (Красноярский край, Россия) (131 км)
Погода в Туруханске (Красноярский край, Россия) (132 км)
Погода в Большом Пороге (Эвенкия, Россия) (164 км)
Погода в Советской Речке (Красноярский край, Россия) (202 км)
Погода в Потапово (Красноярский край, Россия) (212 км)
Погода в Агате (Эвенкия, Россия) (220 км)
Погода в Норильске (Красноярский край, Россия) (265 км)

Пояснения к столбцам:

Ветер - указаны скорость ветра в м/с - средняя за 10 мин, порывы в срок и между сроками (в фигурных скобках) и направление, откуда дует ветер: С - северный, СВ - северо-восточный, В - восточный, ЮВ - юго-восточный, Ю - южный, ЮЗ - юго-западный, З - западный, СЗ - северо-западный.
Видимость - горизонтальная дальность видимости в метрах или километрах. При видимости от 1 до 10 км при отсутствии осадков обычно наблюдается дымка, при ухудшении видимости до 1 км и менее - туман. В сухую погоду видимость может ухудшаться дымом, пылью или мглою.
Явления - указаны атмосферные явления, наблюдавшиеся в срок или в последний час перед сроком; фигурными скобками обозначены явления, наблюдавшиеся между сроками (за 1-3 часа до срока); квадратными скобками обозначены град или гололедные отложения с указанием их диаметра в мм.
Облачность - указаны через наклонную черту общая и нижняя облачность в баллах и высота нижней границы облаков в метрах; квадратными скобками обозначены формы облаков: Ci - перистые, Cs - перисто-слоистые, Cc - перисто-кучевые, Ac - высококучевые, As - высокослоистые, Sc - слоисто-кучевые, Ns - слоисто-дождевые, Cu - кучевые, Cb - кучево-дождевые. Подробнее классификацию облаков см. в Атласе облаков (PDF).
T - Температура воздуха - температура, измеренная на высоте 2 м над землей.
Td - Температура точки росы - температура, при понижении до которой содержащийся в воздухе водяной пар достигнет насыщения.
f - Относительная влажность воздуха - влажноcть воздуха, измеренная на высоте 2 м над землей.
Te - Эффективная температура - температура, которую ощущает одетый по сезону человек в тени. Характеристика душности погоды. При расчете учитывается влияние влажности воздуха и скорости ветра на теплоощущения человека.
Tes - Эффективная температура на солнце - температура, которую ощущает человек, с поправкой на солнечный нагрев. Характеристика знойности погоды. Зависит от высоты солнца над горизонтом, облачности и скорости ветра. Ночью, в пасмурную погоду, а также при ветре 12 м/с и более поправка равна нулю.
P - Атмосферное давление - приведенное к уровню моря атмосферное давление.
Po - Атмосферное давление - измеренное на уровне метеостанции атмосферное давление.
Tmin - Минимальная температура - минимум температуры воздуха на высоте 2 м над землей.
Tmax - Максимальная температура - максимум температуры воздуха на высоте 2 м над землей.
R - Количество осадков - Количество выпавших осадков за период времени, мм. При наведении курсора мыши на число - период времени, за который выпало указанное количество осадков.
R24 - Количество осадков - Количество выпавших осадков за 24 часа, мм.
S - Снежный покров - Высота снежного покрова, см. При наведении курсора мыши на число - состояние снежного покрова и степень покрытия местности в баллах.